This is the latest recevied weather packets stored in our database for station/object K1TTC. If no packets are shown the sender has not sent any weather packets the latest 10 day(s).
| Time | Temp. | Humidity | Pressure | Rain* | Wind** | Luminosity | Snow |
|---|---|---|---|---|---|---|---|
| 1788043201 | 24.44° C | 39% | 1021.8 hPa | 0 mm | - | 19 W/m² | - |
| 1788042667 | 24.44° C | 39% | 1021.7 hPa | 0 mm | - | 21 W/m² | - |
| 1788042001 | 24.44° C | 38% | 1022 hPa | 0 mm | - | 25 W/m² | - |
| 1788041402 | 24.44° C | 38% | 1021.9 hPa | 0 mm | - | 26 W/m² | - |
| 1788040802 | 24.44° C | 38% | 1021.9 hPa | 0 mm | - | 30 W/m² | - |
| 1788040201 | 25° C | 37% | 1022 hPa | 0 mm | - | 32 W/m² | - |
| 1788039602 | 25° C | 36% | 1022.2 hPa | 0 mm | - | 35 W/m² | - |
| 1788039002 | 25° C | 37% | 1022.3 hPa | 0 mm | - | 40 W/m² | - |
| 1788038405 | 25° C | 36% | 1022.3 hPa | 0 mm | - | 37 W/m² | - |
| 1788037838 | 25° C | 35% | 1022.4 hPa | 0 mm | - | 40 W/m² | - |
| 1788037236 | 25.56° C | 36% | 1022.5 hPa | 0 mm | - | 42 W/m² | - |
| 1788036596 | 25.56° C | 36% | 1022.4 hPa | 0 mm | - | 46 W/m² | - |
| 1788035996 | 25.56° C | 34% | 1022.6 hPa | 0 mm | - | 102 W/m² | - |
| 1788035395 | 26.11° C | 34% | 1022.6 hPa | 0 mm | - | 47 W/m² | - |
| 1788034796 | 26.67° C | 32% | 1022.6 hPa | 0 mm | - | 62 W/m² | - |
| 1788034194 | 27.22° C | 31% | 1022.6 hPa | 0 mm | - | 97 W/m² | - |
| 1788033594 | 27.22° C | 30% | 1022.6 hPa | 0 mm | - | 575 W/m² | - |
| 1788032993 | 27.78° C | 30% | 1022.7 hPa | 0 mm | - | 603 W/m² | - |
| 1788032433 | 27.78° C | 29% | 1022.8 hPa | 0 mm | - | 631 W/m² | - |
| 1788031792 | 27.22° C | 30% | 1023 hPa | 0 mm | - | 654 W/m² | - |
| 1788031190 | 27.78° C | 31% | 1022.9 hPa | 0 mm | - | 677 W/m² | - |
| 1788030590 | 27.78° C | 28% | 1022.9 hPa | 0 mm | - | 703 W/m² | - |
| 1788029988 | 27.78° C | 30% | 1023 hPa | 0 mm | - | 731 W/m² | - |
| 1788029389 | 27.78° C | 31% | 1022.9 hPa | 0 mm | - | 745 W/m² | - |
| 1788028785 | 27.22° C | 30% | 1023.2 hPa | 0 mm | - | 751 W/m² | - |
* Rain latest hour (hover to see other rain measurements)
** Current wind speed in m/s (hover to see current wind gust speed)